Simultaneous Nadir Overpasses (SNOs) Predictions

Prediction of SNOs between METOP-B and NOAA-19 Satellite Orbit:

Table of predicted SNOs for the next 14.0 days since TLE Epoch: 10/19/2024
Index Date (METOP-B) Time (METOP-B) Lat,Lon (METOP-B) SZA (METOP-B ) Date (NOAA-19) Time (NOAA-19) Lat,Lon (NOAA-19) SZA (NOAA-19 ) Distance(km) Time Diff (sec)
1 10/28/2024 15:29:59 78.54, 38.81 104.22 10/28/2024 15:28:58 78.54, 38.77 104.16 1.23 61
2 10/28/2024 16:20:36 -78.41,-153.13 75.62 10/28/2024 16:19:54 -78.42,-153.17 75.66 1.23 42
3 10/28/2024 17:11:14 78.29, 14.87 104.54 10/28/2024 17:10:48 78.28, 14.96 104.54 2.58 26
4 10/28/2024 18:01:50 -78.16,-177.11 75.31 10/28/2024 18:01:43 -78.14,-177.01 75.29 2.70 7
5 10/28/2024 18:52:29 78.07, -9.34 104.80 10/28/2024 18:52:39 78.07, -9.35 104.81 0.23 10
6 10/28/2024 19:43:05 -77.90, 158.86 75.00 10/28/2024 19:43:34 -77.90, 158.86 74.97 0.04 29
7 10/28/2024 20:33:44 77.82, -33.39 105.12 10/28/2024 20:34:30 77.83, -33.49 105.13 2.96 46



Historial Predications of SNOs between METOP-B and NOAA-19
